• In Switzerland
  • List of Countries
  • For 7 days
  • Water Temperature
  • Satellite Maps
  • Weather Map
  • Weather Widgets
  • user-avatar
    Login

    Hourly Weather Ali Sabieh

    Today, 21 June, Thursday

    Time Temperature Precipitation Wind Pressure Humidity
    00:00 +35°C° 0 mm 2 mps 696 mmHg 36%
    01:00 +35°C° 0 mm 2 mps 696 mmHg 36%
    02:00 +34°C° 0 mm 2 mps 696 mmHg 37%
    03:00 +33°C° 0 mm 1 mps 696 mmHg 38%
    04:00 +32°C° 0 mm 1 mps 696 mmHg 38%
    05:00 +32°C° 0 mm 2 mps 696 mmHg 38%
    06:00 +33°C° 0 mm 3 mps 696 mmHg 37%
    07:00 +34°C° 0 mm 4 mps 696 mmHg 33%
    08:00 +35°C° 0 mm 5 mps 697 mmHg 30%
    09:00 +38°C° 0 mm 6 mps 697 mmHg 26%
    10:00 +39°C° 0 mm 6 mps 697 mmHg 24%
    11:00 +40°C° 0 mm 6 mps 697 mmHg 21%
    12:00 +41°C° 0 mm 6 mps 697 mmHg 19%
    13:00 +42°C° 0 mm 6 mps 696 mmHg 18%
    14:00 +42°C° 0 mm 5 mps 696 mmHg 17%
    15:00 +43°C° 0 mm 4 mps 695 mmHg 16%
    16:00 +42°C° 0 mm 4 mps 695 mmHg 16%
    17:00 +42°C° 0 mm 4 mps 695 mmHg 16%
    18:00 +40°C° 0 mm 3 mps 695 mmHg 17%
    19:00 +39°C° 0 mm 3 mps 695 mmHg 20%
    20:00 +38°C° 0 mm 3 mps 695 mmHg 23%
    21:00 +37°C° 0 mm 2 mps 695 mmHg 26%
    22:00 +37°C° 0 mm 2 mps 695 mmHg 28%
    23:00 +36°C° 0 mm 2 mps 695 mmHg 30%

    Tomorrow, 22 June, Friday

    Time Temperature Precipitation Wind Pressure Humidity
    00:00 +36°C° 0 mm 3 mps 695 mmHg 33%
    01:00 +35°C° 0 mm 2 mps 695 mmHg 33%
    02:00 +35°C° 0 mm 2 mps 695 mmHg 33%
    03:00 +34°C° 0 mm 2 mps 694 mmHg 33%
    04:00 +34°C° 0 mm 3 mps 694 mmHg 33%
    05:00 +34°C° 0 mm 3 mps 694 mmHg 33%
    06:00 +33°C° 0 mm 4 mps 694 mmHg 33%
    07:00 +35°C° 0 mm 5 mps 695 mmHg 30%
    08:00 +36°C° 0 mm 7 mps 695 mmHg 27%
    09:00 +38°C° 0 mm 8 mps 696 mmHg 23%
    10:00 +40°C° 0 mm 8 mps 696 mmHg 21%
    11:00 +41°C° 0 mm 7 mps 696 mmHg 18%
    12:00 +42°C° 0 mm 6 mps 696 mmHg 16%
    13:00 +44°C° 0 mm 6 mps 695 mmHg 15%
    14:00 +43°C° 0 mm 5 mps 695 mmHg 14%
    15:00 +43°C° 0 mm 4 mps 694 mmHg 13%
    16:00 +43°C° 0 mm 4 mps 694 mmHg 14%
    17:00 +43°C° 0 mm 4 mps 693 mmHg 14%
    18:00 +42°C° 0 mm 4 mps 693 mmHg 15%
    19:00 +40°C° 0 mm 3 mps 693 mmHg 19%
    20:00 +39°C° 0 mm 3 mps 694 mmHg 22%
    21:00 +38°C° 0 mm 2 mps 694 mmHg 26%
    22:00 +37°C° 0 mm 2 mps 694 mmHg 29%
    23:00 +36°C° 0 mm 3 mps 694 mmHg 32%

    Day after tomorrow, 23 June, Saturday

    Time Temperature Precipitation Wind Pressure Humidity
    00:00 +35°C° 0 mm 3 mps 694 mmHg 36%
    01:00 +35°C° 0 mm 3 mps 694 mmHg 35%
    02:00 +35°C° 0 mm 2 mps 693 mmHg 35%
    03:00 +35°C° 0 mm 2 mps 693 mmHg 35%
    04:00 +34°C° 0 mm 3 mps 693 mmHg 33%
    05:00 +34°C° 0 mm 4 mps 693 mmHg 32%
    06:00 +34°C° 0 mm 4 mps 694 mmHg 31%
    07:00 +35°C° 0 mm 5 mps 694 mmHg 30%
    08:00 +35°C° 0 mm 6 mps 695 mmHg 28%
    09:00 +36°C° 0 mm 7 mps 695 mmHg 26%
    10:00 +38°C° 0 mm 7 mps 695 mmHg 24%
    11:00 +39°C° 0 mm 7 mps 695 mmHg 22%
    12:00 +40°C° 0 mm 6 mps 695 mmHg 20%
    13:00 +40°C° 0 mm 6 mps 695 mmHg 19%
    14:00 +41°C° 0 mm 5 mps 694 mmHg 18%
    15:00 +41°C° 0 mm 4 mps 693 mmHg 17%
    16:00 +40°C° 0 mm 3 mps 693 mmHg 18%
    17:00 +40°C° 0 mm 2 mps 693 mmHg 20%
    18:00 +39°C° 0 mm 2 mps 693 mmHg 21%
    19:00 +38°C° 0 mm 2 mps 693 mmHg 25%
    20:00 +37°C° 0 mm 2 mps 693 mmHg 29%
    21:00 +36°C° 0 mm 3 mps 694 mmHg 34%
    22:00 +35°C° 0 mm 2 mps 694 mmHg 34%
    23:00 +35°C° 0 mm 2 mps 694 mmHg 35%

    24 June, Sunday

    Time Temperature Precipitation Wind Pressure Humidity
    00:00 +34°C° 0 mm 1 mps 694 mmHg 36%
    01:00 +34°C° 0 mm 2 mps 693 mmHg 36%
    02:00 +34°C° 0 mm 2 mps 693 mmHg 36%
    03:00 +34°C° 0 mm 2 mps 692 mmHg 35%
    04:00 +32°C° 0 mm 2 mps 693 mmHg 36%
    05:00 +33°C° 0 mm 3 mps 693 mmHg 36%
    06:00 +31°C° 0 mm 3 mps 693 mmHg 37%
    07:00 +33°C° 0 mm 4 mps 694 mmHg 33%
    08:00 +35°C° 0 mm 5 mps 695 mmHg 30%
    09:00 +36°C° 0 mm 5 mps 696 mmHg 27%
    10:00 +37°C° 0 mm 5 mps 695 mmHg 25%
    11:00 +39°C° 0 mm 5 mps 695 mmHg 23%
    12:00 +40°C° 0 mm 4 mps 695 mmHg 21%
    13:00 +41°C° 0 mm 4 mps 695 mmHg 19%
    14:00 +40°C° 0 mm 3 mps 694 mmHg 18%
    15:00 +42°C° 0 mm 3 mps 693 mmHg 17%
    16:00 +41°C° 0 mm 4 mps 693 mmHg 18%
    17:00 +41°C° 0 mm 5 mps 694 mmHg 19%
    18:00 +40°C° 0 mm 6 mps 694 mmHg 21%
    19:00 +39°C° 0 mm 6 mps 694 mmHg 24%
    20:00 +37°C° 0 mm 5 mps 694 mmHg 28%
    21:00 +36°C° 0 mm 4 mps 695 mmHg 31%
    22:00 +36°C° 0 mm 4 mps 695 mmHg 32%
    23:00 +35°C° 0 mm 3 mps 695 mmHg 33%

    25 June, Monday

    Time Temperature Precipitation Wind Pressure Humidity
    00:00 +35°C° 0 mm 2 mps 695 mmHg 33%
    01:00 +34°C° 0 mm 2 mps 694 mmHg 35%
    02:00 +34°C° 0 mm 3 mps 694 mmHg 36%
    03:00 +34°C° 0 mm 3 mps 694 mmHg 38%
    04:00 +33°C° 0.4 mm 3 mps 694 mmHg 40%
    05:00 +33°C° 0.4 mm 3 mps 695 mmHg 41%
    06:00 +31°C° 0.4 mm 2 mps 695 mmHg 43%
    07:00 +33°C° 0.1 mm 4 mps 695 mmHg 41%
    08:00 +33°C° 0.1 mm 6 mps 696 mmHg 39%
    09:00 +33°C° 0.1 mm 7 mps 696 mmHg 37%
    10:00 +34°C° 0 mm 7 mps 696 mmHg 33%
    11:00 +36°C° 0 mm 6 mps 696 mmHg 29%
    12:00 +38°C° 0 mm 6 mps 695 mmHg 25%
    13:00 +39°C° 0 mm 5 mps 695 mmHg 23%
    14:00 +40°C° 0 mm 4 mps 694 mmHg 22%
    15:00 +39°C° 0 mm 3 mps 694 mmHg 20%
    16:00 +39°C° 0 mm 3 mps 694 mmHg 20%
    17:00 +39°C° 0 mm 3 mps 694 mmHg 20%
    18:00 +39°C° 0 mm 3 mps 694 mmHg 20%
    19:00 +38°C° 0 mm 3 mps 694 mmHg 23%
    20:00 +37°C° 0 mm 4 mps 694 mmHg 25%
    21:00 +36°C° 0 mm 4 mps 695 mmHg 28%
    22:00 +36°C° 0 mm 3 mps 695 mmHg 30%
    23:00 +35°C° 0 mm 3 mps 695 mmHg 32%

    26 June, Tuesday

    Time Temperature Precipitation Wind Pressure Humidity
    00:00 +35°C° 0 mm 2 mps 695 mmHg 33%
    01:00 +34°C° 0 mm 2 mps 694 mmHg 34%
    02:00 +34°C° 0 mm 2 mps 694 mmHg 35%
    03:00 +32°C° 0 mm 2 mps 694 mmHg 36%
    04:00 +32°C° 0 mm 2 mps 694 mmHg 37%
    05:00 +32°C° 0 mm 2 mps 694 mmHg 37%
    06:00 +32°C° 0 mm 2 mps 695 mmHg 38%
    07:00 +34°C° 0 mm 3 mps 695 mmHg 35%
    08:00 +35°C° 0 mm 4 mps 696 mmHg 33%
    09:00 +36°C° 0 mm 5 mps 696 mmHg 30%
    10:00 +37°C° 0 mm 5 mps 696 mmHg 28%
    11:00 +39°C° 0 mm 5 mps 696 mmHg 26%
    12:00 +39°C° 0 mm 5 mps 695 mmHg 23%
    13:00 +40°C° 0 mm 4 mps 695 mmHg 22%
    14:00 +40°C° 0 mm 4 mps 694 mmHg 21%
    15:00 +40°C° 0 mm 3 mps 694 mmHg 20%
    16:00 +39°C° 0 mm 3 mps 694 mmHg 21%
    17:00 +39°C° 0 mm 2 mps 694 mmHg 21%
    18:00 +39°C° 0 mm 2 mps 694 mmHg 22%
    19:00 +38°C° 0 mm 2 mps 694 mmHg 23%
    20:00 +38°C° 0 mm 2 mps 694 mmHg 25%
    21:00 +37°C° 0 mm 2 mps 694 mmHg 26%
    22:00 +36°C° 0 mm 2 mps 694 mmHg 28%
    23:00 +36°C° 0 mm 2 mps 694 mmHg 29%
    Show more